Location: ?????????
(41.2393°N, 22.9479°E)
Time: 13:51:15
(UTC+00:00)

COSMO-SKYMED 1 - Pass Details

Date: 17 November 2025
Orbit: 579 x 581 km, 97.9° (Epoch: 06 December)

Event Time Altitude Azimuth Distance (km) Brightness Sun altitude
Exits shadow 15:44:58 - 46° (NE) 2,161 4.8 -7.4°
Reaches altitude 10° 15:45:57 10° 55° (NE) 1,899 4.4 -7.6°
Maximum altitude 15:48:23 15° 92° (E) 1,578 4.1 -8.0°
Drops below altitude 10° 15:50:50 10° 129° (SE) 1,890 4.7 -8.4°
Sets 15:53:46 0° 152° (SSE) 2,783 5.8 -9.0°
